Home > Weather > Kunming > Past weeks

Flag for China Weather for the Past 2 Weeks in Kunming, Yunnan, China

Now
57 °F

Clear.


Feels Like: 53 °F
Forecast: 53 / 78 °F
Wind: 17 mph from Southwest

Location: Kunming Airport

Current Time: May 5, 2016 at 3:33:34 AM

Latest Report: May 5, 2016 at 2:00 AM


Visibility: 10 mi

Pressure: 30.07 "Hg (23.96 "Hg at 1909m altitude)

Humidity: 82%

Dew Point: 52 °F

Location of KunmingLocation

Historic Weather in Kunming — Graph

°F

Kunming Temperature Yesterday

Maximum temperature yesterday: 68 °F (at 6:00 PM)
Minimum temperature yesterday: 54 °F (at 3:00 AM)
Average temperature yesterday: 60 °F

High & Low Weather Summary for the Past Weeks

 TemperatureHumidityPressure
High79 °F (Apr 30, 2:00 PM)100% (Apr 21, 5:00 AM)30.21 "Hg (Apr 21, 5:00 AM)
Low50 °F (Apr 21, 5:00 AM)22% (May 2, 4:00 PM)29.86 "Hg (Apr 22, 3:00 PM)
Average63 °F59%30.06 "Hg
* Reported Apr 20 2:00 AM — May 5 2:00 AM, Kunming, Weather by CustomWeather, © 2016

Note: Actual official high and low records may vary slightly from our data, if they occured in-between our weather recording intervals... More about our weather records

Advertising

Kunming Weather History for the Previous 24 Hours

Scroll right to see more
 ConditionsComfort  
Time TempWeatherWind HumidityBarometerVisibility
2:00 AM
Thu, May 5
57 °FClear.17 mph82%30.07 "Hg10 mi
1:00 AM57 °FClear.15 mph77%30.09 "Hg10 mi
12:00 AM57 °FClear.8 mph72%30.09 "Hg10 mi
11:00 PM
Wed, May 4
59 °FClear.10 mph68%30.09 "Hg10 mi
10:00 PM61 °FClear.13 mph63%30.07 "Hg10 mi
9:00 PM63 °FClear.20 mph56%30.04 "Hg10 mi
8:00 PM64 °FPassing clouds.15 mph52%30.04 "HgN/A
7:00 PM66 °FScattered clouds.22 mph49%30.01 "HgN/A
6:00 PM68 °FScattered clouds.24 mph46%30.01 "HgN/A
5:00 PM66 °FScattered clouds.20 mph52%30.01 "HgN/A
4:00 PM64 °FScattered clouds.17 mph52%30.04 "HgN/A
3:00 PM64 °FBroken clouds.17 mph56%30.07 "HgN/A
2:00 PM61 °FBroken clouds.17 mph68%30.09 "HgN/A
1:00 PM63 °FBroken clouds.15 mph59%30.09 "HgN/A
12:00 PM64 °FBroken clouds.22 mph56%30.09 "HgN/A
11:00 AM63 °FBroken clouds.15 mph68%30.12 "HgN/A
10:00 AM59 °FBroken clouds.13 mph82%30.12 "HgN/A
9:00 AM55 °FBroken clouds.13 mph94%30.12 "Hg4 mi
8:00 AM54 °FFog.10 mph94%30.09 "Hg3 mi
7:00 AM54 °FFog.10 mph94%30.09 "Hg3 mi
6:00 AM54 °FClear.8 mph88%30.09 "Hg10 mi
5:00 AM54 °FPartly cloudy.10 mph94%30.09 "HgN/A
4:00 AM54 °FPartly cloudy.8 mph94%30.12 "Hg5 mi
3:00 AM54 °FThunderstorms. Partly cloudy.22 mph88%30.15 "Hg5 mi
Weather by CustomWeather, © 2016

See weather overviewHow to use our weather pages